Location: Congrier
(47.8099°N, 1.1170°W)
Time: 16:27:39
(UTC+00:00)

Cosmos 1726 Rocket - Pass Details

Date: 28 January 2023
Orbit: 602 x 627 km, 82.5° (Epoch: 25 March)

Event Time Altitude Azimuth Distance (km) Brightness Sun altitude
Rises 19:01:27 0° 353° (N) 2,872 7.0 -20.6°
Reaches altitude 10° 19:03:43 10° 358° (N) 1,961 6.1 -21.0°
Enters shadow 19:06:55 44° 25° (NNE) 846 4.0 -21.5°
